JA6YCL-13 Weather Reports


time (UTC)temp
C
wind
direction
speed
KPH
gust
KPH
rain 1hr
cm
rain 24hr
cm
rain mn
cm
humidity
%
barometer
mb
20260505152133 12 237 3.2 9.7 0.00 0.00 0.00 79 1020.8
20260505150723 12 233 3.2 9.7 0.00 0.00 0.00 79 1021.1
20260505140328 13 259 4.8 11.3 0.00 0.00 0.00 70 1020.8
20260505124238 16 260 1.6 3.2 0.00 0.00 0.00 59 1020.5
20260505122953 16 188 1.6 6.4 0.00 0.00 0.00 61 1020.6
20260505121733 16 229 0.0 3.2 0.00 0.00 0.00 61 1020.6
20260505120433 16 229 1.6 9.7 0.00 0.00 0.00 62 1020.3
20260505114943 16 164 1.6 3.2 0.00 0.00 0.00 61 1020.0
20260505113738 16 185 3.2 9.7 0.00 0.00 0.00 61 1019.8
20260505112355 16 195 1.6 11.3 0.00 0.00 0.00 60 1019.7
20260505111123 16 154 3.2 9.7 0.00 0.00 0.00 61 1019.6
20260505101923 17 157 4.8 11.3 0.00 0.00 0.00 56 1019.1
20260505100447 17 150 4.8 11.3 0.00 0.00 0.00 55 1018.9
20260505095133 17 130 8.0 16.1 0.00 0.00 0.00 54 1018.9
20260505093910 17 117 3.2 16.1 0.00 0.00 0.00 53 1018.9
20260505092618 18 96 8.0 20.9 0.00 0.00 0.00 51 1018.7
20260505091353 18 115 6.4 17.7 0.00 0.00 0.00 49 1018.9
20260505085916 18 109 8.0 16.1 0.00 0.00 0.00 46 1018.5
20260505084543 18 118 8.0 17.7 0.00 0.00 0.00 46 1018.5
20260505083323 19 145 9.7 16.1 0.00 0.00 0.00 45 1018.3
20260505082128 19 136 6.4 14.5 0.00 0.00 0.00 44 1018.1
20260505080758 20 121 12.9 24.1 0.00 0.00 0.00 41 1017.9
20260505075304 20 119 9.7 20.9 0.00 0.00 0.00 39 1017.9
20260505073942 20 135 11.3 27.4 0.00 0.00 0.00 38 1017.8
20260505072619 20 123 11.3 27.4 0.00 0.00 0.00 38 1017.7
20260505071308 21 115 11.3 20.9 0.00 0.00 0.00 37 1017.6
20260505065915 22 117 12.9 24.1 0.00 0.00 0.00 36 1017.6
20260505064452 23 150 6.4 14.5 0.00 0.00 0.00 34 1017.5
20260505063009 23 163 6.4 17.7 0.00 0.00 0.00 33 1017.5
20260505061757 22 101 9.7 20.9 0.00 0.00 0.00 31 1017.4
20260505060512 22 107 9.7 17.7 0.00 0.00 0.00 29 1017.7
20260505055123 23 124 11.3 20.9 0.00 0.00 0.00 28 1017.6
20260505053730 23 106 6.4 16.1 0.00 0.00 0.00 27 1017.6
20260505052310 22 114 11.3 24.1 0.00 0.00 0.00 25 1017.8
20260505050853 22 110 8.0 16.1 0.00 0.00 0.00 24 1018.0
20260505041502 23 188 4.8 16.1 0.00 0.00 0.00 24 1018.4
20260505040158 22 117 4.8 11.3 0.00 0.00 0.00 25 1018.7
20260505034903 22 109 6.4 12.9 0.00 0.00 0.00 26 1019.0
20260505033608 22 355 4.8 9.7 0.00 0.00 0.00 28 1019.2
20260505032353 22 95 3.2 6.4 0.00 0.00 0.00 27 1019.3
20260505031157 22 101 4.8 12.9 0.00 0.00 0.00 26 1019.6
20260505025913 22 133 3.2 12.9 0.00 0.00 0.00 23 1019.7
20260505024513 21 29 3.2 9.7 0.00 0.00 0.00 28 1019.8
20260505023218 21 71 4.8 11.3 0.00 0.00 0.00 29 1019.9
20260505021825 21 91 8.0 11.3 0.00 0.00 0.00 29 1020.0
20260505020500 20 115 3.2 11.3 0.00 0.00 0.00 31 1020.2
20260505015110 20 107 4.8 11.3 0.00 0.00 0.00 33 1020.5
20260505013708 19 66 4.8 9.7 0.00 0.00 0.00 32 1020.7
20260505012243 19 35 3.2 9.7 0.00 0.00 0.00 35 1020.7
20260505010942 19 103 6.4 12.9 0.00 0.00 0.00 33 1020.7
20260505005710 18 40 1.6 6.4 0.00 0.00 0.00 35 1020.7
20260505004403 18 94 3.2 6.4 0.00 0.00 0.00 40 1020.8
20260505003118 18 100 3.2 9.7 0.00 0.00 0.00 42 1020.9
20260505001808 17 291 1.6 3.2 0.00 0.00 0.00 45 1020.9
20260505000445 17 304 1.6 3.2 0.00 0.00 0.00 47 1021.1
20260504235223 17 178 1.6 3.2 0.00 0.00 0.00 45 1021.2
20260504234003 16 201 1.6 4.8 0.00 0.00 0.00 49 1021.3
20260504232748 15 235 1.6 3.2 0.00 0.00 0.00 48 1021.2
20260504231318 14 240 1.6 3.2 0.00 0.00 0.00 57 1021.2
20260504225818 13 238 3.2 6.4 0.00 0.00 0.00 59 1021.4
20260504224548 13 234 1.6 4.8 0.00 0.00 0.00 61 1021.5
20260504223131 12 249 1.6 4.8 0.00 0.00 0.00 64 1021.3
20260504221704 11 228 1.6 1.6 0.00 0.00 0.00 68 1021.3
20260504220421 10 234 1.6 3.2 0.00 0.00 0.00 73 1021.3
20260504215038 10 239 4.8 6.4 0.00 0.00 0.00 75 1021.3
20260504213803 9 242 1.6 4.8 0.00 0.00 0.00 79 1021.4
20260504212548 8 226 0.0 1.6 0.00 0.00 0.00 80 1021.3
20260504211106 8 225 0.0 1.6 0.00 0.00 0.00 80 1021.1
20260504205738 8 224 0.0 1.6 0.00 0.00 0.00 82 1020.9
20260504204533 8 224 0.0 0.0 0.00 0.00 0.00 82 1020.8
20260504203308 8 224 0.0 1.6 0.00 0.00 0.00 80 1020.8
20260504201913 8 224 0.0 1.6 0.00 0.00 0.00 83 1020.7
20260504200518 8 221 0.0 1.6 0.00 0.00 0.00 82 1020.6
20260504195247 8 213 1.6 3.2 0.00 0.00 0.00 82 1020.6
20260504193933 8 203 0.0 1.6 0.00 0.00 0.00 83 1020.5
20260504192718 8 203 0.0 1.6 0.00 0.00 0.00 83 1020.3
20260504191503 9 218 0.0 1.6 0.00 0.00 0.00 80 1020.4
20260504190038 8 238 0.0 0.0 0.00 0.00 0.00 82 1020.3
20260504184808 9 239 0.0 1.6 0.00 0.00 0.00 79 1020.2
20260504183403 9 244 0.0 1.6 0.00 0.00 0.00 80 1020.0
20260504182108 9 244 0.0 0.0 0.00 0.00 0.00 80 1020.0
20260504180653 9 244 1.6 4.8 0.00 0.00 0.00 79 1019.7
20260504175438 9 243 0.0 4.8 0.00 0.00 0.00 80 1019.7
20260504174213 10 229 1.6 4.8 0.00 0.00 0.00 79 1019.5
20260504172917 10 210 0.0 1.6 0.00 0.00 0.00 77 1019.3
20260504171613 10 211 0.0 1.6 0.00 0.00 0.00 75 1019.3
20260504170352 10 0.0 0.0 0.00 0.00 0.00 74 1019.2